"Sample Date","Sample Time","Sample Value","Units","Flow Rate","Sample Interval","Number Channels","Micron Size 0","Counts/Channel 0","Micron Size 1","Counts/Channel 1","Micron Size 2","Counts/Channel 2","Micron Size 3","Counts/Channel 3","Micron Size 4","Counts/Channel 4","Micron Size 5","Counts/Channel 5","Micron Size 6","Counts/Channel 6","Micron Size 7","Counts/Channel 7","Micron Size 8","Counts/Channel 8","Micron Size 9","Counts/Channel 9","Micron Size 10","Counts/Channel 10","Micron Size 11","Counts/Channel 11","Micron Size 12","Counts/Channel 12","Micron Size 13","Counts/Channel 13","Micron Size 14","Counts/Channel 14","Micron Size 15","Counts/Channel 15","Micron Size 16","Counts/Channel 16","Micron Size 17","Counts/Channel 17","Micron Size 18","Counts/Channel 18","Micron Size 19","Counts/Channel 19","Micron Size 20","Counts/Channel 20","Micron Size 21","Counts/Channel 21","Micron Size 22","Counts/Channel 22","Micron Size 23","Counts/Channel 23","Micron Size 24","Counts/Channel 24","Micron Size 25","Counts/Channel 25","Micron Size 26","Counts/Channel 26","Micron Size 27","Counts/Channel 27","Micron Size 28","Counts/Channel 28","Micron Size 29","Counts/Channel 29","Micron Size 30","Counts/Channel 30","Micron Size 31","Counts/Channel 31"
"04/03/08","14:00:03",16257.000,"cc",28298.199,6.00,6,0.100,9930.000,0.200,2254.000,0.300,1740.000,0.500,1708.000,1.000,625.000,5.000,0
"04/03/08","14:00:09",16262.000,"cc",28292.037,6.00,6,0.100,10079.000,0.200,2201.000,0.300,1612.000,0.500,1751.000,1.000,619.000,5.000,0
"04/03/08","14:00:15",15881.000,"cc",28301.822,6.00,6,0.100,9812.000,0.200,2161.000,0.300,1590.000,0.500,1712.000,1.000,606.000,5.000,0
"04/03/08","14:00:21",15987.000,"cc",28360.547,6.00,6,0.100,9909.000,0.200,2183.000,0.300,1577.000,0.500,1707.000,1.000,611.000,5.000,0
"04/03/08","14:00:27",16103.000,"cc",28287.557,6.00,6,0.100,10006.000,0.200,2157.000,0.300,1613.000,0.500,1705.000,1.000,622.000,5.000,0
"04/03/08","14:00:33",16186.000,"cc",28317.773,6.00,6,0.100,9943.000,0.200,2283.000,0.300,1632.000,0.500,1731.000,1.000,597.000,5.000,0
"04/03/08","14:00:39",16307.000,"cc",28371.715,6.00,6,0.100,10193.000,0.200,2187.000,0.300,1637.000,0.500,1735.000,1.000,555.000,5.000,0
"04/03/08","14:00:45",16187.000,"cc",28280.522,6.00,6,0.100,9933.000,0.200,2177.000,0.300,1754.000,0.500,1682.000,1.000,641.000,5.000,0
"04/03/08","14:00:51",16400.000,"cc",28294.219,6.00,6,0.100,10028.000,0.200,2271.000,0.300,1681.000,0.500,1796.000,1.000,624.000,5.000,0
"04/03/08","14:00:57",16215.000,"cc",28314.643,6.00,6,0.100,10017.000,0.200,2147.000,0.300,1728.000,0.500,1705.000,1.000,618.000,5.000,0
"04/03/08","14:01:03",16284.000,"cc",28282.633,6.00,6,0.100,9945.000,0.200,2308.000,0.300,1659.000,0.500,1748.000,1.000,624.000,5.000,0
"04/03/08","14:01:09",16131.000,"cc",28310.887,6.00,6,0.100,9966.000,0.200,2178.000,0.300,1636.000,0.500,1726.000,1.000,625.000,5.000,0
"04/03/08","14:01:15",16119.000,"cc",28380.729,6.00,6,0.100,9973.000,0.200,2220.000,0.300,1648.000,0.500,1707.000,1.000,571.000,5.000,0
"04/03/08","14:01:21",15934.000,"cc",28333.367,6.00,6,0.100,9821.000,0.200,2170.000,0.300,1649.000,0.500,1723.000,1.000,571.000,5.000,0
"04/03/08","14:01:27",15763.000,"cc",28274.022,6.00,6,0.100,9593.000,0.200,2201.000,0.300,1620.000,0.500,1705.000,1.000,644.000,5.000,0
"04/03/08","14:01:33",16011.000,"cc",28377.686,6.00,6,0.100,9894.000,0.200,2096.000,0.300,1640.000,0.500,1720.000,1.000,661.000,5.000,0
"04/03/08","14:01:39",15965.000,"cc",28325.961,6.00,6,0.100,9792.000,0.200,2226.000,0.300,1699.000,0.500,1633.000,1.000,615.000,5.000,0
"04/03/08","14:01:45",15706.000,"cc",28266.043,6.00,6,0.100,9666.000,0.200,2097.000,0.300,1546.000,0.500,1807.000,1.000,590.000,5.000,0
"04/03/08","14:01:51",15961.000,"cc",28274.607,6.00,6,0.100,9781.000,0.200,2201.000,0.300,1629.000,0.500,1767.000,1.000,583.000,5.000,0
"04/03/08","14:01:57",15903.000,"cc",28325.326,6.00,6,0.100,9628.000,0.200,2264.000,0.300,1659.000,0.500,1714.000,1.000,638.000,5.000,0
"04/03/08","14:02:03",15424.000,"cc",28378.660,6.00,6,0.100,9522.000,0.200,2044.000,0.300,1678.000,0.500,1616.000,1.000,564.000,5.000,0
"04/03/08","14:02:09",15655.000,"cc",28310.273,6.00,6,0.100,9676.000,0.200,2131.000,0.300,1582.000,0.500,1688.000,1.000,578.000,5.000,0
"04/03/08","14:02:15",15721.000,"cc",28286.094,6.00,6,0.100,9650.000,0.200,2148.000,0.300,1680.000,0.500,1654.000,1.000,589.000,5.000,0
"04/03/08","14:02:21",15485.000,"cc",28354.926,6.00,6,0.100,9424.000,0.200,2109.000,0.300,1621.000,0.500,1740.000,1.000,591.000,5.000,0
"04/03/08","14:02:27",15686.000,"cc",28344.264,6.00,6,0.100,9583.000,0.200,2258.000,0.300,1524.000,0.500,1730.000,1.000,591.000,5.000,0
"04/03/08","14:02:33",15702.000,"cc",28246.072,6.00,6,0.100,9619.000,0.200,2175.000,0.300,1586.000,0.500,1719.000,1.000,603.000,5.000,0
"04/03/08","14:02:39",15702.000,"cc",28346.902,6.00,6,0.100,9487.000,0.200,2243.000,0.300,1645.000,0.500,1743.000,1.000,584.000,5.000,0
"04/03/08","14:02:45",15595.000,"cc",28341.734,6.00,6,0.100,9575.000,0.200,2136.000,0.300,1600.000,0.500,1726.000,1.000,558.000,5.000,0
"04/03/08","14:02:51",15707.000,"cc",28291.709,6.00,6,0.100,9645.000,0.200,2125.000,0.300,1651.000,0.500,1693.000,1.000,593.000,5.000,0
"04/03/08","14:02:57",15637.000,"cc",28324.330,6.00,6,0.100,9651.000,0.200,2080.000,0.300,1617.000,0.500,1679.000,1.000,610.000,5.000,0
"04/03/08","14:03:03",15609.000,"cc",28273.227,6.00,6,0.100,9573.000,0.200,2088.000,0.300,1581.000,0.500,1780.000,1.000,587.000,5.000,0
"04/03/08","14:03:09",15791.000,"cc",28328.182,6.00,6,0.100,9759.000,0.200,2157.000,0.300,1557.000,0.500,1715.000,1.000,603.000,5.000,0
"04/03/08","14:03:15",15861.000,"cc",28391.315,6.00,6,0.100,9782.000,0.200,2171.000,0.300,1654.000,0.500,1660.000,1.000,594.000,5.000,0
"04/03/08","14:03:21",15598.000,"cc",28290.203,6.00,6,0.100,9487.000,0.200,2173.000,0.300,1672.000,0.500,1678.000,1.000,588.000,5.000,0
"04/03/08","14:03:27",15706.000,"cc",28264.336,6.00,6,0.100,9743.000,0.200,2145.000,0.300,1623.000,0.500,1617.000,1.000,578.000,5.000,0
"04/03/08","14:03:33",15502.000,"cc",28317.203,6.00,6,0.100,9450.000,0.200,2165.000,0.300,1607.000,0.500,1682.000,1.000,598.000,5.000,0
"04/03/08","14:03:39",15733.000,"cc",28295.037,6.00,6,0.100,9733.000,0.200,2097.000,0.300,1609.000,0.500,1680.000,1.000,614.000,5.000,0
"04/03/08","14:03:45",15580.000,"cc",28335.420,6.00,6,0.100,9354.000,0.200,2225.000,0.300,1662.000,0.500,1719.000,1.000,620.000,5.000,0
"04/03/08","14:03:51",15638.000,"cc",28413.748,6.00,6,0.100,9502.000,0.200,2217.000,0.300,1643.000,0.500,1691.000,1.000,585.000,5.000,0
"04/03/08","14:03:57",15762.000,"cc",28273.447,6.00,6,0.100,9689.000,0.200,2193.000,0.300,1593.000,0.500,1720.000,1.000,567.000,5.000,0
"04/03/08","14:04:03",15618.000,"cc",28234.625,6.00,6,0.100,9697.000,0.200,2139.000,0.300,1547.000,0.500,1644.000,1.000,591.000,5.000,0
"04/03/08","14:04:09",15534.000,"cc",28350.941,6.00,6,0.100,9532.000,0.200,2158.000,0.300,1602.000,0.500,1659.000,1.000,583.000,5.000,0
"04/03/08","14:04:15",15700.000,"cc",28333.637,6.00,6,0.100,9665.000,0.200,2171.000,0.300,1588.000,0.500,1684.000,1.000,592.000,5.000,0
"04/03/08","14:04:21",16009.000,"cc",28304.408,6.00,6,0.100,9827.000,0.200,2160.000,0.300,1611.000,0.500,1755.000,1.000,656.000,5.000,0
"04/03/08","14:04:27",15872.000,"cc",28323.357,6.00,6,0.100,9807.000,0.200,2159.000,0.300,1557.000,0.500,1706.000,1.000,643.000,5.000,0
"04/03/08","14:04:33",15976.000,"cc",28310.357,6.00,6,0.100,9906.000,0.200,2186.000,0.300,1636.000,0.500,1635.000,1.000,613.000,5.000,0
"04/03/08","14:04:39",15849.000,"cc",28315.406,6.00,6,0.100,9716.000,0.200,2162.000,0.300,1636.000,0.500,1710.000,1.000,625.000,5.000,0
"04/03/08","14:04:45",16134.000,"cc",28336.904,6.00,6,0.100,9802.000,0.200,2216.000,0.300,1649.000,0.500,1792.000,1.000,675.000,5.000,0
"04/03/08","14:04:51",15867.000,"cc",28319.402,6.00,6,0.100,9741.000,0.200,2230.000,0.300,1589.000,0.500,1729.000,1.000,578.000,5.000,0
"04/03/08","14:04:57",15913.000,"cc",28277.176,6.00,6,0.100,9674.000,0.200,2280.000,0.300,1660.000,0.500,1731.000,1.000,568.000,5.000,0
"04/03/08","14:05:03",15759.000,"cc",28341.820,6.00,6,0.100,9746.000,0.200,2192.000,0.300,1592.000,0.500,1644.000,1.000,585.000,5.000,0
"04/03/08","14:05:09",16020.000,"cc",28327.836,6.00,6,0.100,9795.000,0.200,2217.000,0.300,1675.000,0.500,1766.000,1.000,567.000,5.000,0
"04/03/08","14:05:15",16199.000,"cc",28270.154,6.00,6,0.100,9950.000,0.200,2208.000,0.300,1684.000,0.500,1755.000,1.000,602.000,5.000,0
"04/03/08","14:05:21",15794.000,"cc",28314.773,6.00,6,0.100,9687.000,0.200,2180.000,0.300,1578.000,0.500,1719.000,1.000,630.000,5.000,0
"04/03/08","14:05:27",15790.000,"cc",28294.363,6.00,6,0.100,9666.000,0.200,2117.000,0.300,1668.000,0.500,1735.000,1.000,603.000,5.000,1.000
"04/03/08","14:05:33",16011.000,"cc",28284.340,6.00,6,0.100,9859.000,0.200,2248.000,0.300,1652.000,0.500,1655.000,1.000,597.000,5.000,0
"04/03/08","14:05:39",16112.000,"cc",28374.027,6.00,6,0.100,9933.000,0.200,2192.000,0.300,1668.000,0.500,1714.000,1.000,605.000,5.000,0
"04/03/08","14:05:45",15891.000,"cc",28332.002,6.00,6,0.100,9759.000,0.200,2217.000,0.300,1675.000,0.500,1620.000,1.000,620.000,5.000,0
"04/03/08","14:05:51",15947.000,"cc",28350.766,6.00,6,0.100,9746.000,0.200,2254.000,0.300,1626.000,0.500,1720.000,1.000,601.000,5.000,0
"04/03/08","14:05:57",15819.000,"cc",28288.164,6.00,6,0.100,9818.000,0.200,2215.000,0.300,1527.000,0.500,1689.000,1.000,570.000,5.000,0
"04/03/08","14:06:03",15727.000,"cc",28221.758,6.00,6,0.100,9778.000,0.200,2119.000,0.300,1612.000,0.500,1619.000,1.000,599.000,5.000,0
"04/03/08","14:06:09",15708.000,"cc",28352.918,6.00,6,0.100,9638.000,0.200,2111.000,0.300,1651.000,0.500,1719.000,1.000,589.000,5.000,0
"04/03/08","14:06:15",15802.000,"cc",28300.963,6.00,6,0.100,9844.000,0.200,2171.000,0.300,1553.000,0.500,1701.000,1.000,533.000,5.000,0
"04/03/08","14:06:21",15907.000,"cc",28342.391,6.00,6,0.100,9809.000,0.200,2119.000,0.300,1640.000,0.500,1763.000,1.000,576.000,5.000,0
"04/03/08","14:06:27",15863.000,"cc",28352.637,6.00,6,0.100,9876.000,0.200,2145.000,0.300,1541.000,0.500,1749.000,1.000,552.000,5.000,0
"04/03/08","14:06:33",15957.000,"cc",28353.268,6.00,6,0.100,9818.000,0.200,2168.000,0.300,1691.000,0.500,1663.000,1.000,617.000,5.000,0
"04/03/08","14:06:39",15901.000,"cc",28302.594,6.00,6,0.100,9749.000,0.200,2221.000,0.300,1545.000,0.500,1755.000,1.000,631.000,5.000,0
"04/03/08","14:06:45",16078.000,"cc",28312.816,6.00,6,0.100,9833.000,0.200,2247.000,0.300,1586.000,0.500,1776.000,1.000,636.000,5.000,0
"04/03/08","14:06:51",15847.000,"cc",28343.109,6.00,6,0.100,9740.000,0.200,2214.000,0.300,1604.000,0.500,1709.000,1.000,580.000,5.000,0
"04/03/08","14:06:57",15937.000,"cc",28304.125,6.00,6,0.100,9880.000,0.200,2146.000,0.300,1695.000,0.500,1624.000,1.000,592.000,5.000,0
"04/03/08","14:07:03",15904.000,"cc",28285.531,6.00,6,0.100,9794.000,0.200,2127.000,0.300,1683.000,0.500,1720.000,1.000,580.000,5.000,0
"04/03/08","14:07:09",16196.000,"cc",28278.865,6.00,6,0.100,10027.000,0.200,2192.000,0.300,1678.000,0.500,1663.000,1.000,636.000,5.000,0
"04/03/08","14:07:15",16034.000,"cc",28349.848,6.00,6,0.100,9821.000,0.200,2246.000,0.300,1623.000,0.500,1718.000,1.000,626.000,5.000,0
"04/03/08","14:07:21",16144.000,"cc",28310.473,6.00,6,0.100,10048.000,0.200,2193.000,0.300,1596.000,0.500,1706.000,1.000,601.000,5.000,0
"04/03/08","14:07:27",16377.000,"cc",28336.443,6.00,6,0.100,9987.000,0.200,2225.000,0.300,1738.000,0.500,1793.000,1.000,634.000,5.000,0
"04/03/08","14:07:33",16212.000,"cc",28280.828,6.00,6,0.100,9935.000,0.200,2295.000,0.300,1680.000,0.500,1731.000,1.000,571.000,5.000,0
"04/03/08","14:07:39",16453.000,"cc",28345.055,6.00,6,0.100,10334.000,0.200,2140.000,0.300,1652.000,0.500,1746.000,1.000,581.000,5.000,0
"04/03/08","14:07:45",16213.000,"cc",28326.453,6.00,6,0.100,9955.000,0.200,2292.000,0.300,1657.000,0.500,1707.000,1.000,602.000,5.000,0
"04/03/08","14:07:51",16230.000,"cc",28322.426,6.00,6,0.100,9926.000,0.200,2240.000,0.300,1697.000,0.500,1737.000,1.000,630.000,5.000,0
"04/03/08","14:07:57",16199.000,"cc",28304.863,6.00,6,0.100,10185.000,0.200,2185.000,0.300,1605.000,0.500,1649.000,1.000,575.000,5.000,0
"04/03/08","14:08:03",16120.000,"cc",28289.590,6.00,6,0.100,9977.000,0.200,2136.000,0.300,1667.000,0.500,1742.000,1.000,598.000,5.000,0
"04/03/08","14:08:09",16127.000,"cc",28289.037,6.00,6,0.100,9992.000,0.200,2179.000,0.300,1673.000,0.500,1689.000,1.000,594.000,5.000,0
"04/03/08","14:08:15",16304.000,"cc",28339.168,6.00,6,0.100,9988.000,0.200,2292.000,0.300,1697.000,0.500,1695.000,1.000,632.000,5.000,0
"04/03/08","14:08:21",15998.000,"cc",28366.293,6.00,6,0.100,9766.000,0.200,2206.000,0.300,1680.000,0.500,1731.000,1.000,615.000,5.000,0
"04/03/08","14:08:27",15942.000,"cc",28365.721,6.00,6,0.100,9753.000,0.200,2218.000,0.300,1653.000,0.500,1743.000,1.000,575.000,5.000,0
"04/03/08","14:08:33",16287.000,"cc",28300.498,6.00,6,0.100,9968.000,0.200,2214.000,0.300,1691.000,0.500,1775.000,1.000,639.000,5.000,0
"04/03/08","14:08:39",16025.000,"cc",28326.279,6.00,6,0.100,9894.000,0.200,2184.000,0.300,1633.000,0.500,1734.000,1.000,580.000,5.000,0
"04/03/08","14:08:45",16226.000,"cc",28298.119,6.00,6,0.100,9921.000,0.200,2279.000,0.300,1687.000,0.500,1747.000,1.000,592.000,5.000,0
"04/03/08","14:08:51",16152.000,"cc",28237.270,6.00,6,0.100,9953.000,0.200,2230.000,0.300,1627.000,0.500,1751.000,1.000,591.000,5.000,0
"04/03/08","14:08:57",16146.000,"cc",28224.565,6.00,6,0.100,10080.000,0.200,2210.000,0.300,1603.000,0.500,1692.000,1.000,561.000,5.000,0
"04/03/08","14:09:03",16160.000,"cc",28410.029,6.00,6,0.100,9988.000,0.200,2206.000,0.300,1659.000,0.500,1695.000,1.000,612.000,5.000,0
"04/03/08","14:09:09",16378.000,"cc",28360.127,6.00,6,0.100,10010.000,0.200,2305.000,0.300,1647.000,0.500,1787.000,1.000,629.000,5.000,0
"04/03/08","14:09:15",16103.000,"cc",28348.418,6.00,6,0.100,9908.000,0.200,2136.000,0.300,1671.000,0.500,1777.000,1.000,611.000,5.000,0
"04/03/08","14:09:21",16303.000,"cc",28251.844,6.00,6,0.100,10035.000,0.200,2238.000,0.300,1741.000,0.500,1710.000,1.000,579.000,5.000,0
"04/03/08","14:09:27",16125.000,"cc",28331.670,6.00,6,0.100,9816.000,0.200,2321.000,0.300,1650.000,0.500,1730.000,1.000,608.000,5.000,0
"04/03/08","14:09:33",16206.000,"cc",28323.252,6.00,6,0.100,9965.000,0.200,2283.000,0.300,1637.000,0.500,1731.000,1.000,590.000,5.000,0
"04/03/08","14:09:39",16201.000,"cc",28316.258,6.00,6,0.100,9949.000,0.200,2245.000,0.300,1635.000,0.500,1781.000,1.000,591.000,5.000,0
"04/03/08","14:09:45",16184.000,"cc",28280.492,6.00,6,0.100,10041.000,0.200,2250.000,0.300,1627.000,0.500,1653.000,1.000,612.000,5.000,1.000
"04/03/08","14:09:51",16460.000,"cc",28333.549,6.00,6,0.100,10115.000,0.200,2283.000,0.300,1659.000,0.500,1800.000,1.000,603.000,5.000,0
"04/03/08","14:09:57",16329.000,"cc",28327.109,6.00,6,0.100,10000.000,0.200,2325.000,0.300,1677.000,0.500,1751.000,1.000,576.000,5.000,0
"04/03/08","14:10:03",16309.000,"cc",28359.051,6.00,6,0.100,9959.000,0.200,2202.000,0.300,1705.000,0.500,1842.000,1.000,601.000,5.000,0
"04/03/08","14:10:09",16368.000,"cc",28326.863,6.00,6,0.100,10064.000,0.200,2255.000,0.300,1572.000,0.500,1847.000,1.000,630.000,5.000,0
"04/03/08","14:10:15",16159.000,"cc",28335.992,6.00,6,0.100,9907.000,0.200,2183.000,0.300,1716.000,0.500,1754.000,1.000,599.000,5.000,0
"04/03/08","14:10:21",16178.000,"cc",28315.367,6.00,6,0.100,9975.000,0.200,2220.000,0.300,1648.000,0.500,1704.000,1.000,631.000,5.000,0
"04/03/08","14:10:27",16296.000,"cc",28285.580,6.00,6,0.100,10006.000,0.200,2281.000,0.300,1670.000,0.500,1721.000,1.000,618.000,5.000,0
"04/03/08","14:10:33",16375.000,"cc",28355.434,6.00,6,0.100,10209.000,0.200,2146.000,0.300,1695.000,0.500,1711.000,1.000,614.000,5.000,0
"04/03/08","14:10:39",16322.000,"cc",28288.406,6.00,6,0.100,9959.000,0.200,2362.000,0.300,1698.000,0.500,1690.000,1.000,613.000,5.000,0
"04/03/08","14:10:45",16151.000,"cc",28299.356,6.00,6,0.100,10035.000,0.200,2244.000,0.300,1597.000,0.500,1722.000,1.000,553.000,5.000,0
"04/03/08","14:10:51",16086.000,"cc",28303.135,6.00,6,0.100,9997.000,0.200,2156.000,0.300,1639.000,0.500,1699.000,1.000,595.000,5.000,0
"04/03/08","14:10:57",16427.000,"cc",28356.697,6.00,6,0.100,10133.000,0.200,2250.000,0.300,1770.000,0.500,1696.000,1.000,578.000,5.000,0
"04/03/08","14:11:03",16367.000,"cc",28311.393,6.00,6,0.100,10216.000,0.200,2251.000,0.300,1628.000,0.500,1666.000,1.000,606.000,5.000,0
"04/03/08","14:11:09",16202.000,"cc",28323.061,6.00,6,0.100,10015.000,0.200,2235.000,0.300,1693.000,0.500,1670.000,1.000,589.000,5.000,0
"04/03/08","14:11:15",16307.000,"cc",28334.811,6.00,6,0.100,10062.000,0.200,2269.000,0.300,1659.000,0.500,1707.000,1.000,610.000,5.000,0
"04/03/08","14:11:21",16146.000,"cc",28299.158,6.00,6,0.100,9941.000,0.200,2256.000,0.300,1620.000,0.500,1761.000,1.000,568.000,5.000,0
"04/03/08","14:11:27",16044.000,"cc",28346.660,6.00,6,0.100,9924.000,0.200,2217.000,0.300,1629.000,0.500,1730.000,1.000,544.000,5.000,0
"04/03/08","14:11:33",16434.000,"cc",28310.096,6.00,6,0.100,10087.000,0.200,2275.000,0.300,1666.000,0.500,1813.000,1.000,593.000,5.000,0
"04/03/08","14:11:39",16328.000,"cc",28336.357,6.00,6,0.100,10094.000,0.200,2219.000,0.300,1677.000,0.500,1751.000,1.000,587.000,5.000,0
"04/03/08","14:11:45",16276.000,"cc",28294.150,6.00,6,0.100,9922.000,0.200,2315.000,0.300,1706.000,0.500,1707.000,1.000,626.000,5.000,0
"04/03/08","14:11:51",15807.000,"cc",28310.195,6.00,6,0.100,9728.000,0.200,2223.000,0.300,1559.000,0.500,1699.000,1.000,598.000,5.000,0
"04/03/08","14:11:57",16423.000,"cc",28302.061,6.00,6,0.100,10174.000,0.200,2228.000,0.300,1680.000,0.500,1760.000,1.000,581.000,5.000,0
"04/03/08","14:12:03",16315.000,"cc",28289.525,6.00,6,0.100,10037.000,0.200,2254.000,0.300,1689.000,0.500,1740.000,1.000,595.000,5.000,0
"04/03/08","14:12:09",15922.000,"cc",28309.760,6.00,6,0.100,9700.000,0.200,2228.000,0.300,1651.000,0.500,1747.000,1.000,596.000,5.000,0
"04/03/08","14:12:15",16313.000,"cc",28337.471,6.00,6,0.100,10061.000,0.200,2250.000,0.300,1626.000,0.500,1769.000,1.000,607.000,5.000,0
"04/03/08","14:12:21",15983.000,"cc",28352.557,6.00,6,0.100,9912.000,0.200,2200.000,0.300,1544.000,0.500,1759.000,1.000,568.000,5.000,0
"04/03/08","14:12:27",15918.000,"cc",28312.680,6.00,6,0.100,9850.000,0.200,2119.000,0.300,1611.000,0.500,1716.000,1.000,622.000,5.000,0
"04/03/08","14:12:33",15907.000,"cc",28370.320,6.00,6,0.100,9826.000,0.200,2156.000,0.300,1642.000,0.500,1693.000,1.000,590.000,5.000,0
"04/03/08","14:12:39",16048.000,"cc",28322.789,6.00,6,0.100,9888.000,0.200,2206.000,0.300,1641.000,0.500,1722.000,1.000,591.000,5.000,0
"04/03/08","14:12:45",16091.000,"cc",28324.080,6.00,6,0.100,9997.000,0.200,2189.000,0.300,1629.000,0.500,1660.000,1.000,616.000,5.000,0
"04/03/08","14:12:51",16223.000,"cc",28275.834,6.00,6,0.100,10008.000,0.200,2236.000,0.300,1612.000,0.500,1785.000,1.000,582.000,5.000,0
"04/03/08","14:12:57",16220.000,"cc",28318.861,6.00,6,0.100,10028.000,0.200,2193.000,0.300,1660.000,0.500,1726.000,1.000,613.000,5.000,0
"04/03/08","14:13:03",15924.000,"cc",28303.451,6.00,6,0.100,9707.000,0.200,2225.000,0.300,1668.000,0.500,1744.000,1.000,580.000,5.000,0
"04/03/08","14:13:09",15980.000,"cc",28294.676,6.00,6,0.100,9839.000,0.200,2183.000,0.300,1700.000,0.500,1646.000,1.000,612.000,5.000,0
"04/03/08","14:13:15",16191.000,"cc",28235.273,6.00,6,0.100,10099.000,0.200,2190.000,0.300,1613.000,0.500,1715.000,1.000,574.000,5.000,0
"04/03/08","14:13:21",15911.000,"cc",28370.125,6.00,6,0.100,9805.000,0.200,2261.000,0.300,1564.000,0.500,1717.000,1.000,564.000,5.000,0
"04/03/08","14:13:27",16015.000,"cc",28302.410,6.00,6,0.100,9866.000,0.200,2200.000,0.300,1678.000,0.500,1675.000,1.000,596.000,5.000,0
"04/03/08","14:13:33",16243.000,"cc",28306.566,6.00,6,0.100,10131.000,0.200,2226.000,0.300,1578.000,0.500,1687.000,1.000,621.000,5.000,0
"04/03/08","14:13:39",16332.000,"cc",28367.207,6.00,6,0.100,10090.000,0.200,2289.000,0.300,1663.000,0.500,1689.000,1.000,601.000,5.000,0
"04/03/08","14:13:45",16148.000,"cc",28353.178,6.00,6,0.100,9953.000,0.200,2179.000,0.300,1654.000,0.500,1769.000,1.000,593.000,5.000,0
"04/03/08","14:13:51",16368.000,"cc",28259.525,6.00,6,0.100,10178.000,0.200,2227.000,0.300,1669.000,0.500,1713.000,1.000,581.000,5.000,0
"04/03/08","14:13:57",15855.000,"cc",28331.258,6.00,6,0.100,9774.000,0.200,2175.000,0.300,1660.000,0.500,1653.000,1.000,593.000,5.000,0
"04/03/08","14:14:03",16174.000,"cc",28324.674,6.00,6,0.100,10072.000,0.200,2189.000,0.300,1636.000,0.500,1685.000,1.000,592.000,5.000,0
"04/03/08","14:14:09",16232.000,"cc",28264.668,6.00,6,0.100,9991.000,0.200,2247.000,0.300,1693.000,0.500,1728.000,1.000,573.000,5.000,0
"04/03/08","14:14:15",16197.000,"cc",28297.871,6.00,6,0.100,9904.000,0.200,2135.000,0.300,1731.000,0.500,1798.000,1.000,629.000,5.000,0
"04/03/08","14:14:21",16349.000,"cc",28419.252,6.00,6,0.100,10066.000,0.200,2231.000,0.300,1709.000,0.500,1721.000,1.000,622.000,5.000,0
"04/03/08","14:14:27",16177.000,"cc",28293.330,6.00,6,0.100,10064.000,0.200,2143.000,0.300,1633.000,0.500,1747.000,1.000,590.000,5.000,0
"04/03/08","14:14:33",16024.000,"cc",28268.104,6.00,6,0.100,9782.000,0.200,2238.000,0.300,1626.000,0.500,1760.000,1.000,618.000,5.000,0
"04/03/08","14:14:39",16107.000,"cc",28317.793,6.00,6,0.100,9920.000,0.200,2238.000,0.300,1664.000,0.500,1692.000,1.000,593.000,5.000,0
"04/03/08","14:14:45",16121.000,"cc",28325.906,6.00,6,0.100,9873.000,0.200,2209.000,0.300,1661.000,0.500,1769.000,1.000,609.000,5.000,0
"04/03/08","14:14:51",16379.000,"cc",28279.721,6.00,6,0.100,10092.000,0.200,2174.000,0.300,1643.000,0.500,1825.000,1.000,645.000,5.000,0
"04/03/08","14:14:57",16249.000,"cc",28362.686,6.00,6,0.100,9956.000,0.200,2203.000,0.300,1701.000,0.500,1762.000,1.000,627.000,5.000,0
"04/03/08","14:15:03",16259.000,"cc",28321.670,6.00,6,0.100,9938.000,0.200,2268.000,0.300,1615.000,0.500,1767.000,1.000,671.000,5.000,0
"04/03/08","14:15:09",16087.000,"cc",28294.232,6.00,6,0.100,9886.000,0.200,2178.000,0.300,1677.000,0.500,1767.000,1.000,579.000,5.000,0
"04/03/08","14:15:15",16324.000,"cc",28368.965,6.00,6,0.100,10124.000,0.200,2212.000,0.300,1667.000,0.500,1684.000,1.000,637.000,5.000,0
"04/03/08","14:15:21",15951.000,"cc",28334.359,6.00,6,0.100,9807.000,0.200,2217.000,0.300,1621.000,0.500,1721.000,1.000,585.000,5.000,0
"04/03/08","14:15:27",16225.000,"cc",28312.217,6.00,6,0.100,10039.000,0.200,2175.000,0.300,1661.000,0.500,1739.000,1.000,611.000,5.000,0
"04/03/08","14:15:33",16525.000,"cc",28258.441,6.00,6,0.100,10204.000,0.200,2238.000,0.300,1716.000,0.500,1735.000,1.000,632.000,5.000,0
"04/03/08","14:15:39",16239.000,"cc",28379.781,6.00,6,0.100,9966.000,0.200,2220.000,0.300,1656.000,0.500,1808.000,1.000,589.000,5.000,0
"04/03/08","14:15:45",16116.000,"cc",28307.791,6.00,6,0.100,9855.000,0.200,2276.000,0.300,1653.000,0.500,1730.000,1.000,602.000,5.000,0
"04/03/08","14:15:51",16483.000,"cc",28276.697,6.00,6,0.100,10189.000,0.200,2244.000,0.300,1636.000,0.500,1783.000,1.000,631.000,5.000,0
"04/03/08","14:15:57",16024.000,"cc",28315.436,6.00,6,0.100,9834.000,0.200,2244.000,0.300,1683.000,0.500,1636.000,1.000,627.000,5.000,0
"04/03/08","14:16:03",16317.000,"cc",28331.100,6.00,6,0.100,10037.000,0.200,2198.000,0.300,1683.000,0.500,1786.000,1.000,613.000,5.000,0
"04/03/08","14:16:09",16339.000,"cc",28270.971,6.00,6,0.100,10115.000,0.200,2200.000,0.300,1661.000,0.500,1771.000,1.000,592.000,5.000,0
"04/03/08","14:16:15",16346.000,"cc",28314.750,6.00,6,0.100,10135.000,0.200,2211.000,0.300,1721.000,0.500,1698.000,1.000,581.000,5.000,0
"04/03/08","14:16:21",16152.000,"cc",28360.615,6.00,6,0.100,9948.000,0.200,2200.000,0.300,1679.000,0.500,1703.000,1.000,622.000,5.000,0
"04/03/08","14:16:27",16473.000,"cc",28290.318,6.00,6,0.100,10236.000,0.200,2202.000,0.300,1650.000,0.500,1773.000,1.000,612.000,5.000,0